Weather History for Sacramento / Mc Clellan, CA

Change the Weather History Date:

Friday, October 19, 2012

  Actual Average (KMHR) Record (KMHR)
Temperature  
Mean Temperature 70 °F -  
Max Temperature 80 °F 72 °F 91 °F (2011)
Min Temperature 59 °F 46 °F 44 °F (1996)
Cooling Degree Days 4    
Growing Degree Days 20 (Base 50)    
Moisture  
Dew Point 55 °F    
Average Humidity 67    
Maximum Humidity 94    
Minimum Humidity 30    
Precipitation  
Precipitation 0.00 in - - ()
Sea Level Pressure  
Sea Level Pressure 29.97 in    
Wind  
Wind Speed 7 mph ()    
Max Wind Speed 12 mph    
Max Gust Speed -    
Visibility 9.8 miles    
Events      
Averages and records for this station are not official NWS values.
T = Trace of Precipitation, MM = Missing Value Source: Averaged Metar Reports

Daily Weather History Graph

Daily Weather History Graph

Search for Another Location

Airport:

Trip Planner

Search our weather history database for the weather conditions in past years. The results will help you decide how hot, cold, wet, or windy it might be!

Date:

Astronomy

Oct. 19, 2012 Rise Set
Actual Time 7:19 AM PDT 6:20 PM PDT
Civil Twilight 6:52 AM PDT 6:47 PM PDT
Nautical Twilight 6:21 AM PDT 7:18 PM PDT
Astronomical Twilight 5:50 AM PDT 7:49 PM PDT
Moon 12:05 PM PDT (10/19) 10:07 PM PDT (10/19)
Length of Visible Light 11h 55m
Length of Day
11h 01m
Waxing Crescent, 24% of the Moon is Illuminated
Oct 19
Waxing Crescent
Oct 21
First Quarter
Oct 29
Full
Nov 6
Last Quarter
Nov 13
New

Hourly Weather History & Observations

Time (PDT) Temp. Dew Point Humidity Pressure Visibility Wind Dir Wind Speed Gust Speed Precip Events Conditions
12:10 AM 66.2 °F 57.2 °F 73% 30.02 in 10.0 mi SE 9.2 mph - N/A   Clear
12:30 AM 64.4 °F 57.2 °F 77% 30.02 in 10.0 mi SSE 8.1 mph - N/A   Clear
12:50 AM 64.4 °F 57.2 °F 77% 30.02 in 10.0 mi SE 9.2 mph - N/A   Clear
1:10 AM 66.2 °F 57.2 °F 73% 30.02 in 10.0 mi SSE 9.2 mph - N/A   Clear
1:30 AM 66.2 °F 59.0 °F 78% 30.03 in 10.0 mi SSE 11.5 mph - N/A   Clear
1:50 AM 66.2 °F 59.0 °F 78% 30.03 in 10.0 mi South 6.9 mph - N/A   Clear
2:10 AM 64.4 °F 59.0 °F 83% 30.02 in 10.0 mi SE 6.9 mph - N/A   Clear
2:30 AM 64.4 °F 59.0 °F 83% 30.03 in 10.0 mi SE 8.1 mph - N/A   Clear
2:50 AM 64.4 °F 59.0 °F 83% 30.02 in 10.0 mi SE 8.1 mph - N/A   Clear
3:10 AM 64.4 °F 59.0 °F 83% 30.01 in 10.0 mi SE 10.4 mph - N/A   Clear
3:30 AM 62.6 °F 59.0 °F 88% 30.01 in 10.0 mi SE 10.4 mph - N/A   Clear
3:50 AM 62.6 °F 59.0 °F 88% 30.01 in 10.0 mi SE 9.2 mph - N/A   Clear
4:10 AM 62.6 °F 59.0 °F 88% 30.01 in 10.0 mi ESE 9.2 mph - N/A   Clear
4:30 AM 62.6 °F 59.0 °F 88% 30.01 in 10.0 mi SE 9.2 mph - N/A   Clear
4:50 AM 62.6 °F 59.0 °F 88% 30.01 in 10.0 mi SE 8.1 mph - N/A   Clear
5:10 AM 62.6 °F 57.2 °F 82% 30.01 in 10.0 mi SE 5.8 mph - N/A   Clear
5:30 AM 60.8 °F 57.2 °F 88% 30.01 in 10.0 mi SE 9.2 mph - N/A   Clear
5:50 AM 60.8 °F 57.2 °F 88% 30.02 in 10.0 mi SE 8.1 mph - N/A   Clear
6:10 AM 60.8 °F 57.2 °F 88% 30.02 in 10.0 mi SE 9.2 mph - N/A   Clear
6:30 AM 59.0 °F 57.2 °F 94% 30.02 in 10.0 mi SE 8.1 mph - N/A   Clear
6:50 AM 59.0 °F 57.2 °F 94% 30.02 in 10.0 mi SE 8.1 mph - N/A   Clear
7:10 AM 59.0 °F 57.2 °F 94% 30.02 in 9.0 mi SE 8.1 mph - N/A   Clear
7:30 AM 59.0 °F 57.2 °F 94% 30.02 in 8.0 mi SE 8.1 mph - N/A   Clear
7:50 AM 59.0 °F 57.2 °F 94% 30.02 in 8.0 mi SE 10.4 mph - N/A   Clear
8:10 AM 60.8 °F 57.2 °F 88% 30.04 in 9.0 mi SSE 8.1 mph - N/A   Clear
8:30 AM 62.6 °F 59.0 °F 88% 30.04 in 9.0 mi SE 6.9 mph - N/A   Clear
8:50 AM 62.6 °F 59.0 °F 88% 30.05 in 10.0 mi SE 9.2 mph - N/A   Clear
9:10 AM 64.4 °F 59.0 °F 83% 30.05 in 10.0 mi SE 10.4 mph - N/A   Clear
9:30 AM 64.4 °F 59.0 °F 83% 30.05 in 9.0 mi SSE 9.2 mph - N/A   Clear
9:50 AM 66.2 °F 59.0 °F 78% 30.05 in 8.0 mi SE 8.1 mph - N/A   Clear
10:10 AM 68.0 °F 57.2 °F 68% 30.05 in 10.0 mi SSE 8.1 mph - N/A   Clear
10:30 AM 68.0 °F 57.2 °F 68% 30.05 in 10.0 mi SSE 8.1 mph - N/A   Clear
10:50 AM 69.8 °F 57.2 °F 64% 30.04 in 10.0 mi SSE 9.2 mph - N/A   Clear
11:10 AM 71.6 °F 57.2 °F 60% 30.04 in 9.0 mi SSE 8.1 mph - N/A   Clear
11:30 AM 71.6 °F 55.4 °F 57% 30.03 in 10.0 mi SE 6.9 mph - N/A   Clear
11:50 AM 73.4 °F 55.4 °F 53% 30.03 in 10.0 mi South 5.8 mph - N/A   Clear
12:10 PM 73.4 °F 55.4 °F 53% 30.02 in 10.0 mi SSE 9.2 mph - N/A   Clear
12:30 PM 75.2 °F 55.4 °F 50% 30.01 in 10.0 mi South 8.1 mph - N/A   Clear
12:50 PM 75.2 °F 53.6 °F 47% 30.00 in 10.0 mi South 6.9 mph - N/A   Clear
1:10 PM 75.2 °F 53.6 °F 47% 29.99 in 10.0 mi SW 4.6 mph - N/A   Clear
1:30 PM 77.0 °F 51.8 °F 41% 29.98 in 10.0 mi South 6.9 mph - N/A   Clear
1:50 PM 77.0 °F 51.8 °F 41% 29.97 in 10.0 mi SW 5.8 mph - N/A   Clear
2:10 PM 77.0 °F 50.0 °F 39% 29.96 in 10.0 mi West 3.5 mph - N/A   Clear
2:30 PM 78.8 °F 50.0 °F 36% 29.95 in 10.0 mi SSW 5.8 mph - N/A   Clear
2:50 PM 78.8 °F 48.2 °F 34% 29.95 in 10.0 mi West 5.8 mph - N/A   Clear
3:10 PM 78.8 °F 48.2 °F 34% 29.94 in 9.0 mi West 5.8 mph - N/A   Clear
3:30 PM 80.6 °F 48.2 °F 32% 29.93 in 9.0 mi SSW 3.5 mph - N/A   Clear
3:50 PM 80.6 °F 46.4 °F 30% 29.93 in 10.0 mi SE 4.6 mph - N/A   Clear
4:10 PM 80.6 °F 46.4 °F 30% 29.92 in 9.0 mi West 3.5 mph - N/A   Clear
4:30 PM 80.6 °F 46.4 °F 30% 29.92 in 10.0 mi WSW 4.6 mph - N/A   Clear
4:50 PM 80.6 °F 48.2 °F 32% 29.91 in 10.0 mi SSW 3.5 mph - N/A   Clear
5:10 PM 78.8 °F 50.0 °F 36% 29.90 in 10.0 mi WSW 3.5 mph - N/A   Clear
5:30 PM 78.8 °F 48.2 °F 34% 29.90 in 9.0 mi South 4.6 mph - N/A   Clear
5:50 PM 77.0 °F 48.2 °F 36% 29.89 in 10.0 mi South 4.6 mph - N/A   Clear
6:10 PM 75.2 °F 53.6 °F 47% 29.89 in 10.0 mi South 6.9 mph - N/A   Clear
6:30 PM 73.4 °F 55.4 °F 53% 29.89 in 10.0 mi South 6.9 mph - N/A   Clear
6:50 PM 73.4 °F 55.4 °F 53% 29.89 in 10.0 mi South 5.8 mph - N/A   Clear
7:10 PM 71.6 °F 55.4 °F 57% 29.88 in 10.0 mi South 8.1 mph - N/A   Clear
7:30 PM 71.6 °F 55.4 °F 57% 29.89 in 10.0 mi SSW 6.9 mph - N/A   Clear
7:50 PM 69.8 °F 57.2 °F 64% 29.89 in 10.0 mi SSW 8.1 mph - N/A   Clear
8:10 PM 68.0 °F 57.2 °F 68% 29.89 in 10.0 mi South 6.9 mph - N/A   Clear
8:30 PM 68.0 °F 57.2 °F 68% 29.89 in 10.0 mi South 5.8 mph - N/A   Clear
8:50 PM 66.2 °F 57.2 °F 73% 29.89 in 10.0 mi South 8.1 mph - N/A   Clear
9:10 PM 66.2 °F 57.2 °F 73% 29.88 in 10.0 mi South 8.1 mph - N/A   Clear
9:30 PM 64.4 °F 55.4 °F 73% 29.89 in 10.0 mi South 8.1 mph - N/A   Clear
9:50 PM 64.4 °F 55.4 °F 73% 29.89 in 10.0 mi South 8.1 mph - N/A   Clear
10:10 PM 62.6 °F 55.4 °F 77% 29.89 in 10.0 mi South 8.1 mph - N/A   Clear
10:30 PM 62.6 °F 55.4 °F 77% 29.89 in 9.0 mi SSE 6.9 mph - N/A   Clear
10:50 PM 60.8 °F 55.4 °F 82% 29.89 in 10.0 mi SSE 9.2 mph - N/A   Clear
11:10 PM 60.8 °F 55.4 °F 82% 29.89 in 10.0 mi SE 8.1 mph - N/A   Clear
11:30 PM 59.0 °F 55.4 °F 88% 29.89 in 9.0 mi SSE 8.1 mph - N/A   Clear
11:50 PM 59.0 °F 55.4 °F 88% 29.89 in 10.0 mi SSE 8.1 mph - N/A   Clear